Location: Mahannah Oil Field
(37.4664°N, 96.6003°W)
Time: 09:34:21
(UTC+00:00)

Courier 1B - Pass Details

Date: 23 January 2021
Orbit: 962 x 1209 km, 28.3° (Epoch: 02 March)

Event Time Altitude Azimuth Distance (km) Brightness Sun altitude
Rises 10:43:24 0° 262° (W) 3,634 - -34.1°
Reaches altitude 10° 10:46:36 10° 248° (WSW) 2,693 - -33.5°
Maximum altitude 10:51:27 22° 199° (SSW) 1,971 - -32.6°
Exits shadow 10:53:14 20° 177° (S) 2,096 9.2 -32.2°
Drops below altitude 10° 10:56:24 10° 151° (SSE) 2,759 10.2 -31.6°
Sets 10:59:44 0° 136° (SE) 3,746 11.2 -30.9°
